📊 Raw Sensor Data
Showing records 36301 to 36325 of 84,893 total
| ID | Distance (ft) | Battery V | Battery A | Int Temp (°F) | Int Humid (%) | Ext Temp (°F) | Solar V | RSSI | SNR | Time Stamp |
|---|---|---|---|---|---|---|---|---|---|---|
| 48605 | 15.4 | 4.01 | 0 | 83 | 42 | 88 | 5.10 | -69 | 8 | 08/08/2025 10:00 AM |
| 48604 | 15.4 | 4.04 | 0 | 81 | 42 | 82 | 5.10 | -68 | 7 | 08/08/2025 09:45 AM |
| 48603 | 15.4 | 4.08 | 0 | 79 | 42 | 84 | 5.10 | -68 | 7 | 08/08/2025 09:30 AM |
| 48602 | 15.4 | 3.95 | 0 | 77 | 42 | 76 | 5.10 | -68 | 7 | 08/08/2025 09:15 AM |
| 48601 | 15.4 | 3.92 | 0 | 75 | 42 | 82 | 5.10 | -69 | 7 | 08/08/2025 09:00 AM |
| 48600 | 15.3 | 4.07 | 0 | 73 | 43 | 78 | 5.10 | -68 | 7 | 08/08/2025 08:45 AM |
| 48599 | 15.3 | 3.92 | 0 | 71 | 43 | 73 | 5.10 | -68 | 7 | 08/08/2025 08:30 AM |
| 48598 | 15.3 | 3.92 | 0 | 69 | 44 | 69 | 5.10 | -67 | 8 | 08/08/2025 08:15 AM |
| 48597 | 15.2 | 3.92 | 0 | 67 | 43 | 66 | 5.10 | -68 | 8 | 08/08/2025 08:00 AM |
| 48596 | 15.2 | 4.03 | 39 | 66 | 43 | 66 | 4.50 | -69 | 8 | 08/08/2025 07:45 AM |
| 48595 | 15.2 | 3.93 | 0 | 65 | 43 | 66 | 4.50 | -69 | 8 | 08/08/2025 07:30 AM |
| 48594 | 15.2 | 3.95 | 7 | 64 | 42 | 64 | 4.50 | -69 | 7 | 08/08/2025 07:15 AM |
| 48593 | 15.1 | 3.93 | 0 | 62 | 43 | 71 | 4.50 | -70 | 8 | 08/08/2025 07:00 AM |
| 48592 | 15.1 | 3.84 | 0 | 59 | 44 | 67 | 4.50 | -69 | 8 | 08/08/2025 06:45 AM |
| 48591 | 15.0 | 3.91 | -6 | 58 | 44 | 61 | 4.50 | -70 | 8 | 08/08/2025 06:30 AM |
| 48590 | 15.0 | 3.90 | -10 | 58 | 44 | 59 | 4.20 | -69 | 8 | 08/08/2025 06:15 AM |
| 48589 | 15.0 | 3.92 | -5 | 58 | 44 | 59 | 0.50 | -69 | 8 | 08/08/2025 06:00 AM |
| 48588 | 15.0 | 3.84 | -5 | 59 | 44 | 59 | 0.10 | -69 | 8 | 08/08/2025 05:45 AM |
| 48587 | 15.0 | 3.84 | -5 | 59 | 44 | 60 | 0.00 | -69 | 8 | 08/08/2025 05:30 AM |
| 48586 | 15.0 | 3.84 | -5 | 59 | 44 | 61 | 0.00 | -69 | 8 | 08/08/2025 05:15 AM |
| 48585 | 15.0 | 3.84 | -5 | 59 | 44 | 61 | 0.00 | -69 | 7 | 08/08/2025 05:00 AM |
| 48584 | 15.0 | 3.85 | -5 | 59 | 44 | 62 | 0.00 | -68 | 8 | 08/08/2025 04:45 AM |
| 48583 | 15.0 | 3.85 | -5 | 58 | 45 | 62 | 0.00 | -69 | 8 | 08/08/2025 04:30 AM |
| 48582 | 15.0 | 3.92 | -5 | 58 | 44 | 60 | 0.00 | -68 | 8 | 08/08/2025 04:15 AM |
| 48581 | 15.0 | 3.92 | -5 | 58 | 45 | 60 | 0.00 | -68 | 8 | 08/08/2025 04:00 AM |